Location: Austin
(30.3000°N, 97.7500°W)
Time: 05:55:55
(UTC-06:00)

SeaSat 1 - Pass Details

Date: 03 March 2026
Orbit: 737 x 740 km, 108.0° (Epoch: 6 March)

Event Time Altitude Azimuth Distance (km) Brightness Sun altitude
Exits shadow 20:34:24 69° 342° (NNW) 787 2.5 -27.3°
Drops below altitude 10° 20:38:42 10° 337° (NNW) 2,248 5.3 -28.2°
Sets 20:40:58 0° 337° (NNW) 3,174 6.1 -28.7°
